Regional Weather Roundup
Issued by NWS

Home | Current Version | Previous Version | Text Only | Print | Product List | Glossary Off
Versions: 1 2 3 4 5 6 7 8 9 10 11 12 13 14 15 16 17 18 19 20 21 22 23 24 25 26 27 28 29 30 31 32 33 34 35 36 37 38 39 40 41 42 43 44 45 46 47 48 49 50

407
ASUS43 KMKX 080059
RWRWI

WISCONSIN REGIONAL WEATHER ROUNDUP
NATIONAL WEATHER SERVICE MILWAUKEE/SULLIVAN WI
700 PM CST SUN FEB 07 2016

NOTE: "FAIR" INDICATES FEW OR NO CLOUDS BELOW 12,000 FEET WITH NO
SIGNIFICANT WEATHER AND/OR OBSTRUCTIONS TO VISIBILITY.

WIZ001-002-006>008-014>016-023>028-080200-
NORTHWEST WISCONSIN

CITY           SKY/WX    TMP DP  RH WIND       PRES   REMARKS
SUPERIOR ARPT  CLOUDY    31  26  81 W16G23    29.59R WCI  20
ASHLAND        FLURRIES  33  31  92 W14G22    29.54R WCI  23
HAYWARD        LGT SNOW  30  27  88 VRB6      29.56R FOG     WCI  24
SIREN          LGT SNOW  27  24  89 NW17      29.63R WCI  14
CUMBERLAND     LGT SNOW  30  28  93 NW16G22   29.59R WCI  19
RICE LAKE      LGT SNOW  32  30  93 W17G23    29.61R VSB 1   WCI  21
CHETEK         LGT SNOW  32  30  92 W12G28    29.59R WCI  23
LADYSMITH      FLURRIES  34  31  89 SW8       29.57F WCI  28
EAU CLAIRE     NOT AVBL
MENOMONIE      CLOUDY    37  29  72 SW10G16   29.61S WCI  30
NEW RICHMOND   LGT SNOW  29  26  89 NW21G35   29.65R WCI  15
OSCEOLA        LGT SNOW  28  25  88 W28G37    29.69R WCI  13
$$

WIZ003>005-009-010-017-018-080200-
NORTH CENTRAL WISCONSIN

CITY           SKY/WX    TMP DP  RH WIND       PRES   REMARKS
MANITOWISH WTR LGT SNOW  32  32 100 SW7       29.51S WCI  25
ARBOR VITAE    CLOUDY    34  32  91 SW5       29.53R WCI  30
WOODRUFF       CLOUDY    34  32  91 SW5       29.53R WCI  30
RHINELANDER    CLOUDY    33  28  81 SW8       29.54S WCI  26
EAGLE RIVER    CLOUDY    32  32  97 SW5       29.52S WCI  28
LAND O LAKES   LGT SNOW  33  32  96 CALM      29.52S
PHILLIPS       LGT SNOW  32  31  95 SW6       29.53S WCI  26
TOMAHAWK       CLOUDY    33  28  83 SW3       29.56R
MEDFORD        FLURRIES  34  27  75 SW8       29.56S WCI  27
MERRILL        CLOUDY    36  28  72 W12       29.57S WCI  27
$$

WIZ029-030-035-036-043>047-080200-
CENTRAL WISCONSIN

CITY           SKY/WX    TMP DP  RH WIND       PRES   REMARKS
WAUSAU         CLOUDY    37  26  64 W10       29.56S WCI  30
MOSINEE        NOT AVBL
MARSHFIELD     CLOUDY    36  25  64 SW7       29.58S WCI  30
STEVENS POINT  CLOUDY    35  25  66 SW12      29.61R WCI  27
WAUPACA        MOCLDY    39  28  63 SW8       29.62S WCI  34
WAUTOMA        NOT AVBL
WISC RAPIDS    CLOUDY    37  23  56 W9        29.62F WCI  30
CAMP DOUGLAS   NOT AVBL
$$

WIZ011>013-019>022-031-037>040-048>050-080200-
NORTHEAST WISCONSIN

CITY           SKY/WX    TMP DP  RH WIND       PRES   REMARKS
ANTIGO         CLOUDY    34  28  79 SW9       29.56S WCI  27
SHAWANO        CLOUDY    39  29  68 CALM      29.60S
OCONTO         CLOUDY    37  30  75 S3        29.60S
STURGEON BAY   CLOUDY    36  28  75 S6        29.62F WCI  31
GREEN BAY      CLOUDY    37  30  75 S5        29.61S WCI  33
MANITOWOC      NOT AVBL
APPLETON       CLOUDY    37  27  65 SW10      29.60S WCI  30
CLINTONVILLE   CLOUDY    37  28  70 W6        29.60S WCI  33
OSHKOSH        PTCLDY    37  26  64 SW8       29.63S WCI  31
$$

WIZ032>034-041-042-053>061-080200-
SOUTHWEST WISCONSIN

CITY           SKY/WX    TMP DP  RH WIND       PRES   REMARKS
LA CROSSE      CLOUDY    37  28  70 W10       29.66F WCI  30
SPARTA         CLOUDY    37  28  69 SW6       29.66S WCI  32
VIROQUA        CLOUDY    35  28  77 W15       29.66S WCI  25
BOSCOBEL       CLEAR     37  29  72 SW9       29.71F WCI  30
PRAIRIE DU CHI PTCLDY    36  27  69 W10       29.72F WCI  28
PLATTEVILLE    CLEAR     34  30  86 SW12      29.72F WCI  25
$$

WIZ056-057-062-063-064-067-068-080200-
SOUTH CENTRAL WISCONSIN

CITY           SKY/WX    TMP DP  RH WIND       PRES   REMARKS
REEDSBURG      CLOUDY    36  27  70 W9        29.67S WCI  29
BARABOO/DELLS  CLOUDY    36  26  67 SW10      29.67R WCI  28
LONE ROCK      CLEAR     37  26  64 W9        29.70S WCI  30
MINERAL POINT  CLOUDY    36  30  80 SW10      29.70F WCI  28
MADISON        MOCLDY    35  26  69 SW5       29.68S WCI  31
MIDDLETON      PTCLDY    37  28  68 SW7       29.69S WCI  32
WATERTOWN      CLOUDY    35  28  74 SW9       29.68S WCI  28
MONROE         PTCLDY    36  30  80 SW18      29.71S WCI  25
JANESVILLE     PTCLDY    37  28  70 SW12      29.72S WCI  30
$$

WIZ051-052-058>065-066-070>072-080200-
SOUTHEAST WISCONSIN

CITY           SKY/WX    TMP DP  RH WIND       PRES   REMARKS
MILWAUKEE      PTCLDY    38  26  62 W14       29.69S WCI  30
WAUKESHA       CLEAR     34  25  69 SW12      29.69S WCI  25
MILWAUKEE/TIMM NOT AVBL
RACINE         CLEAR     38  26  62 W10       29.71S WCI  31
BURLINGTON     CLEAR     34  26  72 W9        29.71F WCI  27
KENOSHA        CLEAR     36  27  69 W12       29.70S WCI  28
FOND DU LAC    CLEAR     36  27  69 SW9       29.65R WCI  29
SHEBOYGAN      PTCLDY    35  29  78 SW10      29.65S WCI  27
WEST BEND      CLEAR     36  28  75 SW10      29.66S WCI  28
JUNEAU         CLEAR     33  28  79 SW10      29.67S WCI  25
$$

LSZ147-162-080200-
LAKE SUPERIOR

STATION/POSITION TIME  TEMP    WIND        PRES    WAVE
                       AIR SEA DIR/SP/G            HT/PER
                 (UTC) (F)     (DEG/KT/KT) (MB)    (FT/S)
DEVILS ISLAND    0000   33     240/ 15/ 18  999.8R
PORT WING        0000   33     260/ 10/ 15 1000.7R
SAXON HARBOR     0040   35                  999.7S
$$

LMZ867-665-643>646-080200-
LAKE MICHIGAN

STATION/POSITION TIME  TEMP    WIND        PRES    WAVE
                       AIR SEA DIR/SP/G            HT/PER
                 (UTC) (F)     (DEG/KT/KT) (MB)    (FT/S)
CHAMBERS ISLAND  0000   37     190/  6/ 11 1003.0R
NORTHPORT PIER   0000   38      CALM  /  3 1002.7R
KEWAUNEE LAKESHO 0000   38     210/  7/  8 1002.6F
SHEBOYGAN LAKESH 0000   40     210/  9/ 11 1004.8S
PORT WASHINGTON  0000   40     240/  4/  9 1005.8
MILWAUKEE LAKESH 0010   41     250/ 14/ 16   N/A
KENOSHA   LAKESH 0000   41     250/ 11/ 17 1006.1R
$$

TC  - TEMPERATURE IN CELSIUS
VSB - VISIBILITY IN STATUTE MILES
WCI - WIND CHILL INDEX
HX  - HEAT INDEX





USA.gov is the U.S. government's official web portal to all federal, state and local government web resources and services.